Location: Austin
(30.3000°N, 97.7500°W)
Time: 02:49:19
(UTC-05:00)

SeaSat 1 - Pass Details

Date: 01 October 2024
Orbit: 739 x 742 km, 108.0° (Epoch: 06 October)

Event Time Altitude Azimuth Distance (km) Brightness Sun altitude
Rises 19:47:37 0° 37° (NE) 3,180 5.3 -7.8°
Reaches altitude 10° 19:50:09 10° 48° (NE) 2,253 4.5 -8.3°
Maximum altitude 19:54:24 29° 109° (ESE) 1,325 3.2 -9.2°
Drops below altitude 10° 19:58:38 10° 169° (S) 2,240 4.8 -10.1°
Sets 20:01:08 0° 180° (S) 3,159 5.7 -10.7°
